Fulton, NY

7:49 AM EDT on July 25, 2017 (GMT -0400)
Oswego County

Weather History for KFZY - May, 2013

Change the Weather History Date:

Tuesday, May 7, 2013

  Actual Average (KSYR) Record (KSYR)
Temperature  
Mean Temperature 63 °F -  
Max Temperature 79 °F 63 °F 88 °F (1930)
Min Temperature 48 °F 40 °F 25 °F (1966)
Degree Days  
Heating Degree Days 2    
Growing Degree Days 13 (Base 50)    
Moisture  
Dew Point 48 °F    
Average Humidity 58    
Maximum Humidity 86    
Minimum Humidity 30    
Precipitation  
Precipitation 0.00 in - - ()
Sea Level Pressure  
Sea Level Pressure 30.08 in    
Wind  
Wind Speed 3 mph (ENE)    
Max Wind Speed 12 mph    
Max Gust Speed -    
Visibility 10 miles    
Events      
Averages and records for this station are not official NWS values.
T = Trace of Precipitation, MM = Missing Value Source: NWS Daily Summary

Daily Weather History Graph

Daily Weather History Graph

Search for Another Location

Airport or City:

Trip Planner

Search our weather history database for the weather conditions in past years. The results will help you decide how hot, cold, wet, or windy it might be!

Date:

Astronomy

May. 07, 2013 Rise Set
Actual Time 5:50 AM EDT 8:14 PM EDT
Civil Twilight 5:18 AM EDT 8:46 PM EDT
Nautical Twilight 4:38 AM EDT 9:26 PM EDT
Astronomical Twilight 3:54 AM EDT 10:11 PM EDT
Moon 4:27 AM EDT (5/7) 6:09 PM EDT (5/7)
Length of Visible Light 15h 28m
Length of Day
14h 24m
Waning Crescent, 5% of the Moon is Illuminated
May 7
Waning Crescent
May 9
New
May 18
First Quarter
May 25
Full
May 31
Last Quarter

Hourly Weather History & Observations

Time (EDT) Temp. Dew Point Humidity Pressure Visibility Wind Dir Wind Speed Gust Speed Precip Events Conditions
12:54 AM 53.1 °F 42.1 °F 66% 30.08 in 10.0 mi ESE 4.6 mph - N/A   Clear
1:54 AM 53.1 °F 43.0 °F 69% 30.08 in 10.0 mi Calm Calm - N/A   Clear
2:54 AM 48.9 °F 43.0 °F 80% 30.09 in 10.0 mi Calm Calm - N/A   Clear
3:54 AM 54.0 °F 45.0 °F 72% 30.09 in 10.0 mi South 8.1 mph - N/A   Clear
4:54 AM 48.9 °F 44.1 °F 83% 30.09 in 10.0 mi ESE 3.5 mph - N/A   Clear
5:54 AM 50.0 °F 46.0 °F 86% 30.10 in 10.0 mi Calm Calm - N/A   Clear
6:54 AM 55.9 °F 48.0 °F 75% 30.11 in 10.0 mi ESE 3.5 mph - N/A   Clear
8:54 AM 64.0 °F 52.0 °F 65% 30.14 in 10.0 mi SE 3.5 mph - N/A   Clear
9:54 AM 68.0 °F 53.1 °F 59% 30.14 in 10.0 mi Calm Calm - N/A   Clear
10:54 AM 71.1 °F 52.0 °F 51% 30.13 in 10.0 mi Calm Calm - N/A   Clear
11:54 AM 72.0 °F 51.1 °F 48% 30.12 in 10.0 mi Calm Calm - N/A   Clear
12:54 PM 75.0 °F 52.0 °F 44% 30.10 in 10.0 mi SW 3.5 mph - N/A   Clear
1:54 PM 77.0 °F 48.9 °F 37% 30.08 in 10.0 mi Calm Calm - N/A   Partly Cloudy
2:54 PM 78.1 °F 44.1 °F 30% 30.06 in 10.0 mi East 3.5 mph - N/A   Clear
3:54 PM 78.1 °F 53.1 °F 42% 30.04 in 10.0 mi NNE 11.5 mph - N/A   Partly Cloudy
4:54 PM 77.0 °F 52.0 °F 42% 30.03 in 10.0 mi North 10.4 mph - N/A   Partly Cloudy
5:54 PM 73.0 °F 51.1 °F 46% 30.02 in 10.0 mi NNE 9.2 mph - N/A   Clear
6:54 PM 72.0 °F 50.0 °F 46% 30.03 in 10.0 mi North 8.1 mph - N/A   Clear
7:54 PM 66.9 °F 50.0 °F 54% 30.03 in 10.0 mi North 5.8 mph - N/A   Clear
8:54 PM 62.1 °F 48.0 °F 60% 30.04 in 10.0 mi NNE 4.6 mph - N/A   Clear
9:54 PM 61.0 °F 46.9 °F 60% 30.05 in 10.0 mi NE 3.5 mph - N/A   Clear
10:54 PM 64.0 °F 48.0 °F 56% 30.04 in 10.0 mi NE 3.5 mph - N/A   Clear
11:54 PM 62.1 °F 48.9 °F 62% 30.05 in 10.0 mi Calm Calm - N/A   Clear